Left ArrowRight Arrow

Hourly Observations for February 13, 2017

Temp ( °F °C ) Dew Point ( °F °C ) Humidity (%) Winds ( mph kmh ) Pressure ( in mb ) Visibility ( mi km ) Precip ( " mm )
12:53 am 00:53 Clear 41 5 20 -6.7 43 43 NNW 10 17 30.28 1026 10 16 0.00 0.00
1:53 am 01:53 Clear 39 3.9 21 -6.1 48 48 N 5 7 30.29 1026 10 16 0.00 0.00
2:53 am 02:53 Clear 37 2.8 19 -7.2 48 48 N 8 13 30.30 1026 10 16 0.00 0.00
3:53 am 03:53 Clear 35 1.7 18 -7.8 50 50 NNW 6 9 30.31 1026 10 16 0.00 0.00
4:53 am 04:53 Clear 34 1.1 17 -8.3 50 50 N 7 11 30.32 1027 10 16 0.00 0.00
5:53 am 05:53 Clear 32 0 17 -8.3 54 54 N 7 11 30.32 1027 10 16 0.00 0.00
6:53 am 06:53 Clear 31 -0.6 17 -8.3 56 56 N 5 7 30.34 1027 10 16 0.00 0.00
7:53 am 07:53 Sunny 31 -0.6 17 -8.3 56 56 Calm 30.35 1028 10 16 0.00 0.00
8:53 am 08:53 Sunny 35 1.7 18 -7.8 50 50 NNE 8 13 30.36 1028 10 16 0.00 0.00
9:53 am 09:53 Sunny 37 2.8 16 -8.9 42 42 NE 9 15 30.36 1028 10 16 0.00 0.00
10:53 am 10:53 Sunny 40 4.4 16 -8.9 38 38 VRB 6 9 30.35 1028 10 16 0.00 0.00
11:53 am 11:53 Sunny 43 6.1 13 -10.6 29 29 VRB 3 6 30.33 1027 10 16 0.00 0.00
12:53 pm 12:53 Sunny 46 7.8 13 -10.6 26 26 E 7 11 30.30 1026 10 16 0.00 0.00
2:53 pm 14:53 Sunny 47 8.3 10 -12.2 22 22 Calm 30.24 1024 10 16 0.00 0.00
3:53 pm 15:53 Sunny 50 10 11 -11.7 21 21 Calm 30.21 1023 10 16 0.00 0.00
4:53 pm 16:53 Sunny 49 9.4 10 -12.2 21 21 Calm 30.19 1022 10 16 0.00 0.00
5:53 pm 17:53 Sunny 47 8.3 12 -11.1 24 24 SE 3 6 30.18 1022 10 16 0.00 0.00
6:53 pm 18:53 Clear 43 6.1 14 -10 31 31 Calm 30.17 1022 10 16 0.00 0.00
7:53 pm 19:53 Clear 39 3.9 19 -7.2 45 45 Calm 30.16 1021 10 16 0.00 0.00
8:53 pm 20:53 Clear 37 2.8 19 -7.2 48 48 Calm 30.15 1021 10 16 0.00 0.00
9:53 pm 21:53 Clear 36 2.2 20 -6.7 52 52 Calm 30.14 1021 10 16 0.00 0.00
10:53 pm 22:53 Clear 33 0.6 21 -6.1 61 61 Calm 30.14 1021 10 16 0.00 0.00
11:53 pm 23:53 Clear 32 0 23 -5 69 69 Calm 30.12 1020 10 16 0.00 0.00

Powered by Vaisala Xweather